Stations météo

Publicité
Ajaccio, France (7761): Température de l'air & dewpoint: 04.12.2019 20:00:00 - 10.12.2019 20:00:00 (CET)Ajaccio, France (7761): Température de l'air 5cm: 04.12.2019 20:00:00 - 10.12.2019 20:00:00 (CET)Ajaccio, France (7761): Température de l'air -20cm & Température de l'air -100cm: 04.12.2019 20:00:00 - 10.12.2019 20:00:00 (CET)Ajaccio, France (7761): Vitesse du vent & gusts: 04.12.2019 20:00:00 - 10.12.2019 20:00:00 (CET)Ajaccio, France (7761): Direction du vent: 04.12.2019 20:00:00 - 10.12.2019 20:00:00 (CET)Ajaccio, France (7761): reduced air pressure: 04.12.2019 20:00:00 - 10.12.2019 20:00:00 (CET)Ajaccio, France (7761): visibility: 04.12.2019 20:00:00 - 10.12.2019 20:00:00 (CET)Ajaccio, France (7761): Ensoleillement: 04.12.2019 20:00:00 - 10.12.2019 20:00:00 (CET)Ajaccio, France (7761): Quantités de précipitations: 04.12.2019 20:00:00 - 10.12.2019 20:00:00 (CET)
Date & Time tt [°C] td [°C] tt 5cm [°C] tt -20cm [°C] tt -100cm [°C] ff [km/h] ff [knt] fx [km/h] fx [knt] dd ppp [hPa] vv [km] sd [min] rr [mm]
10.12.2019 20:00:00 7,4 1,9 5,4 12,8 15,6 12 6 20 11 ENE 1018,0 53 0 0,0
10.12.2019 19:00:00 8,9 2,0 6,2 12,8 15,6 4 2 19 10 E 1017,5 38 0 0,0
10.12.2019 18:00:00 11,3 2,6 8,9 12,8 15,6 10 6 15 8 NE 1016,6 38 0 0,0
10.12.2019 17:00:00 13,5 1,2 9,7 12,7 15,6 6 4 12 6 ENE 1015,6 51 44 0,0
10.12.2019 16:00:00 16,5 0,2 15,4 12,6 15,6 10 6 29 16 N 1015,2 59 60 0,0
10.12.2019 15:00:00 17,8 -1,0 18,6 12,6 15,6 15 8 30 16 NE 1014,7 53 60 0,0
10.12.2019 14:00:00 18,1 -1,7 20,0 12,5 15,6 18 10 39 21 NE 1014,6 58 60 0,0
10.12.2019 13:00:00 17,9 -0,4 20,6 12,5 15,6 21 11 37 20 NE 1014,4 18 60 0,0
10.12.2019 12:00:00 17,2 4,8 19,5 12,6 15,6 3 1 10 6 SSW 1014,5 24 60 0,0
10.12.2019 11:00:00 13,3 5,7 14,2 12,6 15,7 6 3 12 7 NE 1014,6 48 60 0,0
10.12.2019 10:00:00 9,9 4,9 8,9 12,7 15,6 9 5 18 10 NE 1014,1 20 60 0,0
10.12.2019 09:00:00 7,2 4,2 4,4 12,8 15,6 11 6 22 12 NE 1013,5 34 40 0,0
10.12.2019 08:00:00 5,5 3,2 4,3 12,9 15,7 14 8 22 12 NE 1012,7 49 0 0,0
10.12.2019 07:00:00 6,4 4,1 4,0 13,0 15,6 10 6 22 12 NE 1011,7 56 0 0,0
10.12.2019 06:00:00 6,9 4,2 5,2 13,0 15,7 13 7 19 10 NE 1010,6 58 0 0,0
10.12.2019 05:00:00 7,2 4,5 5,7 13,1 15,7 13 7 25 14 NNE 1010,5 60 0 0,0
10.12.2019 04:00:00 7,0 4,8 5,9 13,2 15,7 14 8 22 12 NNE 1010,2 50 0 0,0
10.12.2019 03:00:00 7,9 5,4 6,7 13,2 15,7 12 6 21 11 NNE 1010,1 52 0 0,0
10.12.2019 02:00:00 9,0 6,1 7,7 13,2 15,7 15 8 27 14 NNE 1010,0 51 0 0,0
10.12.2019 01:00:00 10,1 6,6 8,2 13,3 15,7 8 5 16 9 NE 1009,7 43 0 0,0
10.12.2019 00:00:00 10,8 7,1 9,8 13,3 15,7 8 5 17 9 NE 1010,2 36 0 0,0
09.12.2019 23:00:00 13,4 5,3 11,9 13,3 15,7 16 8 46 25 NW 1010,1 34 0 0,0
09.12.2019 22:00:00 14,0 4,8 12,9 13,3 15,7 29 16 56 30 NW 1010,5 38 0 0,0
09.12.2019 21:00:00 14,3 4,3 13,4 13,3 15,7 35 19 61 33 WNW 1010,8 44 0 0,0
09.12.2019 20:00:00 14,4 6,2 13,2 13,3 15,7 31 17 61 33 WNW 1010,7 19 0 0,0
09.12.2019 19:00:00 14,5 5,8 13,3 13,3 15,7 38 21 59 32 WNW 1010,7 18 0 0,0
09.12.2019 18:00:00 14,3 7,6 12,9 13,3 15,7 30 16 55 30 WNW 1011,2 16 0 0,0
09.12.2019 17:00:00 14,2 7,7 13,1 13,2 15,7 31 17 48 26 W 1011,2 16 4 0,0
09.12.2019 16:00:00 14,7 8,2 14,3 13,2 15,7 31 17 46 25 W 1012,4 17 12 0,0
09.12.2019 15:00:00 15,5 8,9 14,4 13,2 15,7 18 10 32 17 W 1012,8 16 15 0,0
09.12.2019 14:00:00 14,7 8,6 13,4 13,2 15,7 12 7 37 20 NW 1013,5 18 10 0,0
09.12.2019 13:00:00 14,5 9,5 11,6 13,2 15,7 9 5 54 29 NW 1014,2 18 6 0,4
09.12.2019 12:00:00 15,2 7,5 14,2 13,2 15,7 27 15 48 26 WNW 1014,5 19 39 0,0
09.12.2019 11:00:00 14,6 7,6 11,0 13,2 15,7 19 11 49 26 NW 1015,0 20 40 0,0
09.12.2019 10:00:00 12,2 6,7 10,6 13,2 15,7 19 11 50 27 NW 1015,2 29 3 0,0
09.12.2019 09:00:00 11,2 10,6 10,3 13,3 15,7 4 2 14 8 NE 1014,9 15 0 0,0
09.12.2019 08:00:00 11,3 10,7 10,7 13,2 15,7 5 3 10 6 ENE 1015,1 21 0 1,0
09.12.2019 07:00:00 11,3 10,7 10,5 13,3 15,7 8 5 16 8 NNE 1014,6 3,5 0 1,2
09.12.2019 06:00:00 11,2 10,6 10,3 13,3 15,7 7 4 13 7 N 1015,0 6 0 0,4
09.12.2019 05:00:00 11,2 10,1 10,0 13,3 15,7 8 4 13 7 NNE 1015,7 5 0 0,0
09.12.2019 04:00:00 11,2 9,5 10,1 13,4 15,7 9 5 17 9 NNE 1016,6 9 0 0,2
09.12.2019 03:00:00 11,0 9,1 10,3 13,4 15,7 8 4 17 9 NE 1017,6 35 0 0,0
09.12.2019 02:00:00 10,8 8,9 10,3 13,5 15,7 10 5 15 8 NE 1018,1 35 0 0,0
09.12.2019 01:00:00 10,8 8,9 10,1 13,5 15,7 8 4 15 8 NE 1018,3 28 0 0,0
09.12.2019 00:00:00 10,5 8,6 9,9 13,5 15,7 6 3 16 9 NNE 1019,1 29 0 0,0
08.12.2019 23:00:00 10,2 8,6 9,0 13,6 15,7 8 5 18 10 NE 1019,5 22 0 0,0
08.12.2019 22:00:00 9,5 8,1 8,6 13,6 15,7 10 5 16 9 NE 1019,7 20 0 0,0
08.12.2019 21:00:00 9,6 7,9 8,7 13,6 15,7 10 6 15 8 NE 1019,8 19 0 0,0
08.12.2019 20:00:00 10,4 8,3 9,7 13,6 15,7 10 5 16 8 NE 1019,9 22 0 0,0
08.12.2019 19:00:00 10,9 8,8 9,8 13,5 15,7 10 6 14 8 NE 1019,8 24 0 0,0
08.12.2019 18:00:00 12,8 9,6 11,4 13,5 15,8 6 4 10 6 ENE 1019,6 27 0 0,0
08.12.2019 17:00:00 14,7 10,7 12,8 13,4 15,7 10 5 17 9 SW 1019,6 45 7 0,0
08.12.2019 16:00:00 16,3 9,7 15,5 13,3 15,7 11 6 19 10 SW 1020,0 54 60 0,0
08.12.2019 15:00:00 17,0 9,4 18,4 13,2 15,7 14 7 23 12 SW 1020,2 60 60 0,0
08.12.2019 14:00:00 17,8 9,4 21,2 13,2 15,7 11 6 16 9 SW 1020,3 58 60 0,0
08.12.2019 13:00:00 17,2 9,9 21,7 13,2 15,7 8 4 13 7 WSW 1020,9 48 60 0,0
08.12.2019 12:00:00 16,3 9,7 21,9 13,2 15,7 7 4 11 6 WSW 1021,4 51 60 0,0
08.12.2019 11:00:00 15,3 9,4 17,3 13,3 15,7 4 2 14 8 ENE 1022,4 49 60 0,0
08.12.2019 10:00:00 11,9 8,4 11,0 13,4 15,7 10 5 19 10 NNE 1022,3 60 60 0,0
08.12.2019 09:00:00 8,9 6,7 6,8 13,5 15,7 13 7 22 12 NNE 1022,2 52 42 0,0
08.12.2019 08:00:00 7,3 5,8 6,4 13,5 15,7 14 8 25 13 NNE 1022,1 53 0 0,0
08.12.2019 07:00:00 7,7 5,8 6,3 13,6 15,8 15 8 22 12 NNE 1021,8 54 0 0,0
08.12.2019 06:00:00 7,4 5,5 6,2 13,7 15,7 13 7 20 11 NNE 1021,2 53 0 0,0
08.12.2019 05:00:00 7,4 5,7 6,0 13,8 15,8 10 6 19 11 NE 1021,5 47 0 0,0
08.12.2019 04:00:00 8,1 6,4 7,1 13,9 15,7 10 5 21 11 NNE 1021,2 49 0 0,0
08.12.2019 03:00:00 8,2 6,7 7,2 13,9 15,7 14 7 21 11 NNE 1021,7 40 0 0,0
08.12.2019 02:00:00 8,8 6,9 7,4 14,1 15,7 11 6 19 10 NNE 1022,0 40 0 0,0
08.12.2019 01:00:00 9,2 7,6 8,0 14,1 15,7 11 6 26 14 NNE 1021,9 43 0 0,0
08.12.2019 00:00:00 8,9 7,7 7,9 14,2 15,8 16 9 22 12 NE 1022,6 24 0 0,0
07.12.2019 23:00:00 9,6 8,2 8,3 14,2 15,8 13 7 19 10 NE 1022,7 20 0 0,0
07.12.2019 22:00:00 10,0 8,4 9,1 14,2 15,7 13 7 18 10 NE 1022,1 21 0 0,0
07.12.2019 21:00:00 11,0 8,9 9,9 14,2 15,7 13 7 18 10 NE 1022,1 22 0 0,0
07.12.2019 20:00:00 11,9 9,5 10,9 14,2 15,7 12 7 18 10 NNE 1022,0 23 0 0,0
07.12.2019 19:00:00 12,8 10,5 11,9 14,2 15,7 7 4 10 6 NE 1021,7 18 0 0,0
07.12.2019 18:00:00 13,8 10,6 11,5 14,1 15,7 5 3 8 4 NNE 1021,5 26 0 0,0
07.12.2019 17:00:00 14,5 10,7 12,5 14,1 15,7 5 3 26 14 NW 1021,3 42 5 0,0
07.12.2019 16:00:00 16,0 11,4 15,7 13,9 15,7 21 11 27 15 WSW 1020,9 59 60 0,0
07.12.2019 15:00:00 16,7 10,5 16,2 13,8 15,7 10 5 23 12 W 1020,8 48 49 0,0
07.12.2019 14:00:00 16,8 11,1 20,2 13,7 15,7 15 8 22 12 WSW 1021,0 52 60 0,0
07.12.2019 13:00:00 17,3 11,3 19,5 13,7 15,7 12 7 19 10 SW 1021,5 36 58 0,0
07.12.2019 12:00:00 16,3 11,9 17,5 13,7 15,7 8 5 13 7 SSW 1022,0 52 30 0,0
07.12.2019 11:00:00 15,7 11,5 19,8 13,7 15,7 6 4 10 5 SW 1022,1 49 60 0,0
07.12.2019 10:00:00 14,7 11,8 14,7 13,7 15,7 3 2 12 6 E 1022,0 50 60 0,0
07.12.2019 09:00:00 12,3 11,2 11,5 13,7 15,7 8 5 15 8 ENE 1022,2 40 2 0,0
07.12.2019 08:00:00 12,0 10,6 11,1 13,8 15,7 5 3 9 5 NE 1021,8 47 0 0,0
07.12.2019 07:00:00 12,0 10,7 10,9 13,8 15,8 8 4 11 6 ENE 1021,6 36 0 0,0
07.12.2019 06:00:00 12,0 10,6 11,3 13,8 15,7 5 3 14 8 ENE 1021,0 51 0 0,0
07.12.2019 05:00:00 12,0 10,7 11,0 13,9 15,7 6 3 15 8 NE 1020,8 43 0 0,0
07.12.2019 04:00:00 11,8 10,5 11,0 13,9 15,7 11 6 16 9 NNE 1021,1 42 0 0,0
07.12.2019 03:00:00 11,8 10,7 10,8 13,9 15,7 9 5 15 8 NE 1021,4 38 0 0,0
07.12.2019 02:00:00 11,9 10,5 10,8 13,9 15,7 9 5 14 7 NE 1021,2 6 0 0,0
07.12.2019 01:00:00 11,7 10,1 10,8 13,9 15,7 11 6 16 9 NNE 1021,4 19 0 0,0
07.12.2019 00:00:00 11,4 10,1 10,6 14,0 15,7 11 6 17 9 NNE 1022,0 38 0 0,0
06.12.2019 23:00:00 11,2 9,9 10,1 14,0 15,7 11 6 17 9 NNE 1022,1 36 0 0,0
06.12.2019 22:00:00 10,8 9,9 9,6 14,0 15,7 11 6 18 10 NE 1022,1 23 0 0,0
06.12.2019 21:00:00 11,3 10,4 10,1 14,0 15,7 9 5 14 7 NE 1022,1 17 0 0,0
06.12.2019 20:00:00 12,5 11,4 11,2 14,0 15,7 7 4 12 7 NE 1022,1 19 0 0,0
06.12.2019 19:00:00 13,6 12,3 12,4 13,9 15,8 8 4 11 6 ENE 1021,9 12 0 0,0
06.12.2019 18:00:00 14,4 12,9 12,8 13,9 15,7 5 3 8 4 E 1021,5 22 0 0,0
06.12.2019 17:00:00 15,2 12,7 13,7 13,8 15,7 0 0 5 3 N 1021,5 19 0 0,0
06.12.2019 16:00:00 15,9 12,5 15,6 13,7 15,7 4 2 6 4 SSW 1021,5 45 2 0,0
06.12.2019 15:00:00 16,7 11,8 16,8 13,6 15,7 5 3 10 5 S 1021,7 58 21 0,0
06.12.2019 14:00:00 16,1 11,3 14,9 13,6 15,7 6 3 16 9 N 1022,1 60 1 0,0
06.12.2019 13:00:00 16,1 11,7 15,5 13,5 15,7 11 6 19 10 NNE 1022,7 60 20 0,0
06.12.2019 12:00:00 15,3 12,6 15,1 13,5 15,7 11 6 18 10 NNE 1023,4 33 28 0,0
06.12.2019 11:00:00 14,5 13,2 12,5 13,5 15,7 6 4 21 12 NNE 1023,9 32 13 5,1
06.12.2019 10:00:00 13,9 11,8 13,2 13,5 15,7 9 5 14 8 NNE 1023,8 29 10 0,4
06.12.2019 09:00:00 13,0 11,4 11,3 13,6 15,7 6 3 19 10 NE 1023,2 29 3 0,0
06.12.2019 08:00:00 12,0 10,7 10,7 13,6 15,7 6 3 19 10 NNE 1022,9 29 0 1,8
06.12.2019 07:00:00 12,4 9,4 11,2 13,6 15,7 5 3 13 7 NE 1022,7 11 0 0,0
06.12.2019 06:00:00 12,2 9,2 11,3 13,7 15,8 8 4 14 8 NE 1022,2 51 0 0,0
06.12.2019 05:00:00 12,0 9,0 11,1 13,7 15,7 7 4 18 10 ENE 1022,1 52 0 0,0
06.12.2019 04:00:00 12,2 9,0 11,2 13,7 15,7 11 6 18 10 NE 1022,2 40 0 0,0
06.12.2019 03:00:00 11,8 8,6 11,0 13,7 15,7 11 6 19 10 NE 1022,4 47 0 0,0
06.12.2019 02:00:00 11,5 8,7 10,8 13,8 15,8 11 6 19 10 NE 1022,4 49 0 0,0
06.12.2019 01:00:00 11,7 8,5 10,8 13,8 15,8 14 8 19 11 NE 1022,4 46 0 0,0
06.12.2019 00:00:00 11,9 8,6 10,3 13,8 15,8 11 6 18 10 NNE 1022,6 46 0 0,0
05.12.2019 23:00:00 12,2 8,7 10,8 13,8 15,8 9 5 18 10 NNE 1022,7 20 0 0,0
05.12.2019 22:00:00 12,7 9,0 11,8 13,8 15,8 11 6 17 9 NE 1022,2 35 0 0,0
05.12.2019 21:00:00 12,9 8,8 11,7 13,8 15,8 8 5 16 9 NE 1021,6 40 0 0,0
05.12.2019 20:00:00 13,4 9,1 11,8 13,8 15,7 9 5 18 10 NE 1021,5 31 0 0,0
05.12.2019 19:00:00 14,3 9,3 13,1 13,7 15,8 11 6 17 9 NNE 1020,9 26 0 0,0
05.12.2019 18:00:00 15,1 10,7 13,4 13,6 15,8 8 4 13 7 ENE 1020,3 37 0 0,0
05.12.2019 17:00:00 16,9 9,8 14,5 13,5 15,8 5 3 18 10 NNE 1019,7 40 0 0,0
05.12.2019 16:00:00 19,0 8,0 17,3 13,4 15,8 9 5 19 10 SW 1018,9 46 53 0,0
05.12.2019 15:00:00 21,0 7,9 21,4 13,3 15,8 11 6 23 12 SSE 1018,8 40 60 0,0
05.12.2019 14:00:00 20,2 8,5 21,9 13,2 15,8 14 8 31 17 ESE 1018,3 56 60 0,0
05.12.2019 13:00:00 20,6 9,8 23,3 13,2 15,8 8 4 22 12 SE 1018,5 45 60 0,0
05.12.2019 12:00:00 18,0 10,8 17,6 13,2 15,8 7 4 13 7 NNE 1018,5 44 9 0,0
05.12.2019 11:00:00 17,1 11,1 16,1 13,2 15,8 6 3 11 6 ENE 1018,6 52 44 0,0
05.12.2019 10:00:00 14,2 11,0 12,7 13,2 15,8 4 2 11 6 E 1017,9 59 5 0,0
05.12.2019 09:00:00 13,2 10,2 11,5 13,2 15,8 13 7 22 12 NNE 1017,3 54 0 0,0
05.12.2019 08:00:00 13,7 9,3 12,2 13,2 15,8 10 5 16 9 NNE 1017,0 43 0 0,0
05.12.2019 07:00:00 14,1 8,3 12,7 13,2 15,8 7 4 20 11 N 1016,2 19 0 0,0
05.12.2019 06:00:00 15,5 7,3 13,3 13,2 15,8 5 3 16 8 SE 1015,6 60 0 0,0
05.12.2019 05:00:00 16,2 6,6 14,7 13,2 15,8 9 5 31 17 SE 1014,6 60 0 0,0
05.12.2019 04:00:00 17,5 6,1 15,3 13,2 15,9 13 7 42 23 E 1014,6 60 0 0,0
05.12.2019 03:00:00 17,2 6,4 15,3 13,2 15,9 20 11 36 19 ENE 1015,0 60 0 0,0
05.12.2019 02:00:00 17,2 6,7 12,3 13,2 15,9 10 6 28 15 E 1014,8 60 0 0,0
05.12.2019 01:00:00 13,4 7,8 12,0 13,3 15,9 7 4 22 12 E 1014,5 45 0 0,0
05.12.2019 00:00:00 13,5 8,5 11,9 13,3 15,9 6 3 16 9 E 1014,6 42 0 0,0
04.12.2019 23:00:00 13,1 8,0 11,0 13,3 15,9 12 6 25 14 ENE 1013,8 41 0 0,0
04.12.2019 22:00:00 12,4 7,7 10,9 13,3 15,9 7 4 17 9 ENE 1014,4 36 0 0,0
04.12.2019 21:00:00 12,5 7,6 10,1 13,3 15,9 14 7 23 12 NE 1013,7 42 0 0,0
04.12.2019 20:00:00 11,1 8,5 10,0 13,2 15,8 12 7 17 9 NE 1014,2 27 0 0,0

tt = Température de l'air
td = dewpoint
tt 5cm = Température de l'air 5cm
tt -20cm = Température de l'air -20cm
tt -100cm = Température de l'air -100cm
ff = Vitesse du vent
fx = gusts
dd = Direction du vent
ppp = reduced air pressure
vv = visibility
sd = Ensoleillement
rr = Quantités de précipitations

stations d'obs. à proximité